This demonstration page uses our WeatherBlox Daily Observations layout. Learn more.

Left ArrowRight Arrow

Hourly Observations for June 24, 2017

Temp ( °F °C ) Dew Point ( °F °C ) Humidity (%) Winds ( mph kmh ) Pressure ( in mb ) Visibility ( mi km ) Precip ( " mm )
12:15 am 00:15 Clear 56 13.5 46 7.5 67 67 Calm 30.18 1022 10 16.0934 0 0
12:35 am 00:35 Clear 55 12.7 46 7.7 72 72 Calm 30.18 1022 10 16.0934 0 0
12:55 am 00:55 Clear 53 11.6 45 7.4 76 76 W 3 6 30.18 1022 10 16.0934 0 0
1:15 am 01:15 Clear 53 11.6 46 7.5 76 76 WNW 3 6 30.18 1022 10 16.0934 0 0
1:35 am 01:35 Clear 52 11.3 46 7.5 78 78 NW 5 7 30.18 1022 10 16.0934 0 0
1:55 am 01:55 Clear 52 11.3 45 7.3 77 77 NW 6 9 30.18 1022 10 16.0934 0 0
2:15 am 02:15 Clear 52 11.1 45 7.2 77 77 WNW 3 6 30.18 1022 10 16.0934 0 0
2:35 am 02:35 Clear 51 10.7 45 7 78 78 WNW 5 7 30.24 1024 10 16.0934 0 0
2:55 am 02:55 Clear 53 11.5 44 6.7 73 73 WNW 5 7 30.21 1023 10 16.0934 0 0
3:15 am 03:15 Clear 51 10.8 44 6.6 76 76 NW 5 7 30.24 1024 10 16.0934 0 0
3:35 am 03:35 Clear 50 10.1 44 6.8 80 80 NW 6 9 30.24 1024 10 16.0934 0 0
3:55 am 03:55 Clear 49 9.7 43 6.3 80 80 NW 6 9 30.24 1024 10 16.0934 0 0
4:15 am 04:15 Clear 50 9.8 43 6.2 79 79 NW 6 9 30.24 1024 10 16.0934 0 0
4:35 am 04:35 Clear 49 9.5 43 6.1 80 80 Calm 30.21 1023 10 16.0934 0 0
4:55 am 04:55 Clear 51 10.5 43 6.1 74 74 NNW 5 7 30.21 1023 10 16.0934 0 0
5:15 am 05:15 Clear 50 10.2 43 6.3 77 77 Calm 30.21 1023 10 16.0934 0 0
5:35 am 05:35 Clear 51 10.5 44 6.5 76 76 WNW 3 6 30.21 1023 10 16.0934 0 0
5:55 am 05:55 Clear 50 10 44 6.6 80 80 Calm 30.24 1024 10 16.0934 0 0
6:15 am 06:15 Sunny 50 10.1 44 6.5 79 79 NNW 6 9 30.24 1024 10 16.0934 0 0
6:35 am 06:35 Sunny 52 10.9 43 6.3 73 73 NNW 6 9 30.24 1024 10 16.0934 0 0
6:55 am 06:55 Mostly Cloudy 51 10.8 44 6.9 77 77 Calm 30.24 1024 10 16.0934 0 0
7:15 am 07:15 Mostly Cloudy 51 10.8 45 7.3 79 79 Calm 30.24 1024 10 16.0934 0 0
7:35 am 07:35 Mostly Cloudy 52 11.3 46 7.5 78 78 Calm 30.21 1023 10 16.0934 0 0
7:55 am 07:55 Cloudy 55 12.8 47 8.2 74 74 Calm 30.21 1023 10 16.0934 0 0
8:15 am 08:15 Mostly Cloudy 58 14.3 47 8.1 67 67 Calm 30.21 1023 10 16.0934 0 0
8:35 am 08:35 Cloudy 60 15.6 48 9 65 65 Calm 30.21 1023 10 16.0934 0 0
8:55 am 08:55 Partly Cloudy 61 16.3 44 6.7 53 53 Calm 30.21 1023 10 16.0934 0 0
9:15 am 09:15 Partly Cloudy 63 17.1 45 7.3 53 53 Calm 30.21 1023 10 16.0934 0 0
9:35 am 09:35 Partly Cloudy 64 17.7 43 6.2 47 47 SSW 7 11 30.21 1023 10 16.0934 0 0
9:55 am 09:55 Partly Cloudy 65 18.6 39 3.8 38 38 S 7 11 30.18 1022 10 16.0934 0 0
10:15 am 10:15 Mostly Cloudy 67 19.5 37 2.9 33 33 SW 5 7 30.18 1022 10 16.0934 0 0
10:35 am 10:35 Partly Cloudy 68 19.8 36 2.4 32 32 SSW 7 11 30.18 1022 10 16.0934 0 0
10:55 am 10:55 Partly Cloudy 68 20 35 1.9 30 30 WSW 6 9 30.18 1022 10 16.0934 0 0
11:15 am 11:15 Partly Cloudy 70 20.9 34 1.2 27 27 WSW 5 7 30.18 1022 10 16.0934 0 0
11:35 am 11:35 Sunny 70 21 33 0.8 26 26 SW 7 11 30.18 1022 10 16.0934 0 0
11:55 am 11:55 Mostly Cloudy 70 20.9 36 2.2 29 29 SW 9 15 30.21 1023 10 16.0934 0 0
12:15 pm 12:15 Cloudy 69 20.6 38 3.5 33 33 SW 9 15 30.21 1023 10 16.0934 0 0
12:35 pm 12:35 Mostly Cloudy 69 20.8 35 1.8 28 28 SW 9 15 30.21 1023 10 16.0934 0 0
12:55 pm 12:55 Cloudy 69 20.6 38 3.1 32 32 SSW 10 17 30.21 1023 10 16.0934 0 0
1:15 pm 13:15 Cloudy 69 20.5 39 3.7 33 33 SW 8 13 30.21 1023 10 16.0934 0 0
1:35 pm 13:35 Cloudy 68 20.1 38 3.1 33 33 SW 9 15 30.21 1023 10 16.0934 0 0
1:55 pm 13:55 Cloudy 68 20 39 4 35 35 SW 6 9 30.21 1023 10 16.0934 0 0
2:15 pm 14:15 Cloudy 69 20.3 40 4.4 35 35 SW 7 11 30.18 1022 10 16.0934 0 0
2:35 pm 14:35 Cloudy 71 21.8 41 5 34 34 SW 7 11 30.18 1022 10 16.0934 0 0
2:55 pm 14:55 Cloudy 71 21.8 40 4.3 32 32 SW 9 15 30.18 1022 10 16.0934 0 0
3:15 pm 15:15 Cloudy 71 21.8 39 4.1 31 31 SW 9 15 30.18 1022 10 16.0934 0 0
3:35 pm 15:35 Cloudy 71 21.8 38 3.5 30 30 WSW 8 13 30.18 1022 10 16.0934 0 0
3:55 pm 15:55 Cloudy 72 22.4 38 3.6 29 29 SW 8 13 30.15 1021 10 16.0934 0 0
4:15 pm 16:15 Cloudy 74 23.6 40 4.3 29 29 WSW 8 13 30.12 1020 10 16.0934 0 0
4:35 pm 16:35 Mostly Cloudy 73 23 39 4 29 29 WSW 9 15 30.12 1020 10 16.0934 0 0
4:55 pm 16:55 Cloudy 74 23.4 39 3.7 28 28 W 10 17 30.12 1020 10 16.0934 0 0
5:15 pm 17:15 Cloudy 75 24 39 3.8 27 27 W 10 17 30.12 1020 10 16.0934 0 0
5:35 pm 17:35 Cloudy 73 23 38 3.4 28 28 WSW 9 15 30.12 1020 10 16.0934 0 0
5:55 pm 17:55 Mostly Cloudy 73 23 38 3.6 28 28 WSW 10 17 30.09 1019 10 16.0934 0 0
6:15 pm 18:15 Cloudy 73 23 39 3.8 29 29 WSW 12 19 30.09 1019 10 16.0934 0 0
6:35 pm 18:35 Cloudy 73 22.9 40 4.5 30 30 SW 5 7 30.09 1019 10 16.0934 0 0
6:55 pm 18:55 Mostly Cloudy 73 23 42 5.4 32 32 SW 8 13 30.09 1019 10 16.0934 0 0
7:15 pm 19:15 Partly Cloudy 73 23 42 5.8 33 33 WSW 6 9 30.09 1019 10 16.0934 0 0
7:35 pm 19:35 Sunny 73 22.8 43 5.9 34 34 WSW 6 9 30.09 1019 10 16.0934 0 0
7:55 pm 19:55 Partly Cloudy 73 22.5 44 6.5 36 36 WSW 5 7 30.09 1019 10 16.0934 0 0
8:15 pm 20:15 Mostly Cloudy with Haze 71 21.8 45 7.1 39 39 WSW 3 6 30.09 1019 5 8.0467 0 0
8:35 pm 20:35 Mostly Cloudy 71 21.9 47 8.2 42 42 Calm 30.12 1020 10 16.0934 0 0
8:55 pm 20:55 Mostly Cloudy 70 21 46 7.8 43 43 SW 3 6 30.15 1021 10 16.0934 0 0
9:15 pm 21:15 Partly Cloudy 68 20.2 47 8.4 47 47 Calm 30.15 1021 10 16.0934 0 0
9:35 pm 21:35 Clear 66 18.7 41 4.9 40 40 NE 13 20 30.15 1021 10 16.0934 0 0
9:55 pm 21:55 Clear 63 17.1 42 5.4 46 46 NE 6 9 30.18 1022 10 16.0934 0 0
10:15 pm 22:15 Clear 61 16.1 45 7 55 55 ENE 3 6 30.21 1023 10 16.0934 0 0
10:35 pm 22:35 Clear 62 16.5 42 5.4 48 48 Calm 30.21 1023 10 16.0934 0 0
10:55 pm 22:55 Clear 60 15.5 42 5.3 51 51 Calm 30.21 1023 10 16.0934 0 0
11:15 pm 23:15 Clear 60 15.4 41 5.2 51 51 Calm 30.21 1023 10 16.0934 0 0
11:35 pm 23:35 Clear 58 14.2 43 5.9 58 58 Calm 30.24 1024 10 16.0934 0 0
11:55 pm 23:55 Clear 59 14.8 42 5.4 54 54 Calm 30.24 1024 10 16.0934 0 0

Powered by AerisWeather